Location: Waco, TX
(31.5480°N, 97.1670°W)
Time: 05:45:17
(UTC-05:00)

ISS - Pass Details

Date: 28 September 2022
Orbit: 414 x 417 km, 51.6° (Epoch: 01 October)

Event Time Altitude Azimuth Distance (km) Brightness Sun altitude
Rises 15:34:59 0° 242° (WSW) 2,339 0.8 43.3°
Reaches altitude 10° 15:37:11 10° 252° (WSW) 1,481 0.0 42.9°
Maximum altitude 15:40:15 34° 319° (NW) 697 -2.2 42.4°
Drops below altitude 10° 15:43:21 10° 27° (NNE) 1,489 -1.3 41.9°
Sets 15:45:34 0° 37° (NE) 2,355 -0.4 41.5°
